星链-34631 (STARLINK-34631)

导读

STARLINK-34631是美国SpaceX公司星链(Starlink)互联网星座的成员卫星,于2025年7月19日发射入轨。它运行于近地轨道,采用平板设计,搭载氪工质霍尔推进器,支持Ku/Ka波段通信与自主避撞,旨在为全球偏远地区提供高速低延迟宽带互联网服务,退役后会主动离轨并在大气层完全销毁,不对地面造成威胁。

Basic Information
目录编号:
64855
目录名称:
STARLINK-34631
国际标识:
2025-152P
轨道中心:
EARTH
卫星名称:
星链-34631
卫星全名:
星链-34631 (STARLINK-34631)
卫星状态:
在轨 (已飞行329 天)
发射日期:
2025-07-19 UTC
国别 :
美国 (US)
星等 :
--
Orbit Information
数据来源 国际轨道数据 AOE轨道数据
星历时间 2026-06-13T21:36:36+0800
9小时前
查看轨道信息
2026-06-14T00:00:00+0800
7小时前
查看轨道信息
半长轴 6927.587km 6927.623km
偏心率 0.0002561 0.0002796
轨道倾角 97.365° 97.369°
近地点辐角 73.137° 78.895°
升交点赤经 19.125° 19.218°
平近点角 287.014° 100.651°
近地点 547.675km 547.549km
远地点 551.225km 551.423km
周期 95.638分钟 95.639分钟
每日圈数 15.0567 15.056585
Detailed Information
固有亮度:
5
最大亮度:
2.5
卫星平台:
Starlink V1.0
覆盖范围:
全球
运营商:
太空探索技术公司
运营商所在国:
美国
制造商(研发单位):
太空探索技术公司
制造商所在国:
美国
使用方式:
暂无
Satellite Introduction
Starlink 计划是 SpaceX 推出的全球卫星互联网项目,通过发射低轨道卫星,为全球尤其是偏远地区提供高速、低延迟的互联网服务。自 2019 年起,Starlink 已部署数千颗卫星,旨在缩小全球数字鸿沟,推动互联网普及。该项目还为军事、航空等行业提供通信支持,带来广泛经济效益。
2D Orbit Map
3D Orbit Map
Orbit Altitude Analysis Chart
Orbit Inclination Analysis Chart
Orbit Comprehensive Analysis Chart
View Comprehensive Chart